Location: Igri�s
(42.2144°N, 0.4320°W)
Time: 10:14:23
(UTC+00:00)

DMSP B5D2-2 - Pass Details

Date: 13 August 2020
Orbit: 790 x 805 km, 98.3° (Epoch: 18 September)

Event Time Altitude Azimuth Distance (km) Brightness Sun altitude
Rises 20:03:16 0° 12° (NNE) 3,304 7.5 -10.6°
Reaches altitude 10° 20:05:36 10° 12° (NNE) 2,372 6.8 -11.0°
Maximum altitude 20:10:51 85° 286° (WNW) 806 4.2 -11.8°
Drops below altitude 10° 20:16:05 10° 197° (SSW) 2,365 6.4 -12.6°
Sets 20:18:24 0° 197° (SSW) 3,293 7.1 -13.0°
